This is the latest recevied weather packets stored in our database for station/object K0SDS. If no packets are shown the sender has not sent any weather packets the latest 10 day(s).
| Time | Temp. | Humidity | Pressure | Rain* | Wind** | Luminosity | Snow |
|---|---|---|---|---|---|---|---|
| 1777733129 | 13.89° C | 52% | 1021.9 hPa | 0 mm | - | 437 W/m² | - |
| 1777732826 | 13.33° C | 54% | 1022.2 hPa | 0 mm | - | 409 W/m² | - |
| 1777732522 | 12.78° C | 55% | 1022.1 hPa | 0 mm | - | 377 W/m² | - |
| 1777732221 | 12.78° C | 53% | 1022.1 hPa | 0 mm | - | 353 W/m² | - |
| 1777731917 | 12.22° C | 55% | 1021.9 hPa | 0 mm | - | 330 W/m² | - |
| 1777731614 | 12.22° C | 54% | 1022.2 hPa | 0 mm | - | 316 W/m² | - |
| 1777731312 | 11.11° C | 55% | 1022.4 hPa | 0 mm | - | 310 W/m² | - |
| 1777731009 | 11.11° C | 56% | 1022.2 hPa | 0 mm | - | 287 W/m² | - |
| 1777730708 | 11.11° C | 56% | 1022.2 hPa | 0 mm | - | 295 W/m² | - |
| 1777730403 | 10.56° C | 56% | 1021.9 hPa | 0 mm | - | 252 W/m² | - |
| 1777730099 | 11.11° C | 57% | 1022.2 hPa | 0 mm | - | 231 W/m² | - |
| 1777729796 | 10.56° C | 61% | 1022.1 hPa | 0 mm | - | 210 W/m² | - |
| 1777729493 | 10.56° C | 59% | 1022.1 hPa | 0 mm | - | 209 W/m² | - |
| 1777729190 | 10° C | 61% | 1021.8 hPa | 0 mm | - | 203 W/m² | - |
| 1777728886 | 10° C | 60% | 1021.8 hPa | 0 mm | - | 194 W/m² | - |
| 1777728583 | 9.44° C | 60% | 1022.1 hPa | 0 mm | - | 169 W/m² | - |
| 1777728280 | 9.44° C | 60% | 1021.8 hPa | 0 mm | - | 163 W/m² | - |
| 1777727978 | 8.89° C | 65% | 1021.9 hPa | 0 mm | - | 135 W/m² | - |
| 1777727674 | 8.89° C | 64% | 1021.8 hPa | 0 mm | - | 113 W/m² | - |
| 1777727371 | 8.33° C | 69% | 1022 hPa | 0 mm | - | 114 W/m² | - |
| 1777727068 | 7.78° C | 70% | 1021.8 hPa | 0 mm | - | 102 W/m² | - |
| 1777726766 | 6.67° C | 71% | 1021.8 hPa | 0 mm | - | 76 W/m² | - |
| 1777726463 | 6.67° C | 74% | 1021.8 hPa | 0 mm | - | 65 W/m² | - |
| 1777726160 | 6.11° C | 83% | 1021.7 hPa | 0 mm | - | 58 W/m² | - |
| 1777725856 | 5° C | 85% | 1021.7 hPa | 0 mm | - | 55 W/m² | - |
* Rain latest hour (hover to see other rain measurements)
** Current wind speed in m/s (hover to see current wind gust speed)